Вернуться в каталог

FLOCK 4H 12

АктивенНаукаSSO
NORAD 66715·PAYLOAD·🇺🇸 United States

Запущен Nov 28, 2025 с Vandenberg Space Force Base

Loading…

Ближайшие Пролёты (ближайшие 24 часа)

TLE

СвежийSource: CelesTrak SupGP

Эпоха: Sep 14, 2026, 06:45 UTC

1 66715C 25276BB  26257.28133102  .00007530  00000+0  33559-3 0  2578
2 66715  97.4118 329.5920 0002880  53.9133  16.1691 15.21492383    12

Отслеживайте FLOCK 4H 12 в реальном времени с AllMySat

Download on the App Store